Location: Palomar Mountain Lodge
(33.3110°N, 116.8495°W)
Time: 08:22:08
(UTC-07:00)

NOSS 8 (A) - Pass Details

Date: 19 May 2017
Orbit: 432 x 1732 km, 63.3° (Epoch: 14 May)

Event Time Altitude Azimuth Distance (km) Brightness Sun altitude
Rises 20:34:42 0° 206° (SSW) 2,624 8.2 -10.2°
Reaches altitude 10° 20:36:59 10° 205° (SSW) 1,639 7.2 -10.6°
Maximum altitude 20:40:28 77° 121° (ESE) 453 4.2 -11.2°
Drops below altitude 10° 20:43:44 10° 33° (NNE) 1,532 7.1 -11.8°
Sets 20:45:48 0° 32° (NNE) 2,431 8.2 -12.1°
